TimeCST,TemperatureF,Dew PointF,Humidity,Sea Level PressureIn,VisibilityMPH,Wind Direction,Wind SpeedMPH,Gust SpeedMPH,PrecipitationIn,Events,Conditions,WindDirDegrees,DateUTC
12:53 AM,23.0,18.0,81,29.78,9.0,SSE,18.4,25.3,N/A,,Overcast,160,2012-01-22 06:53:00
1:53 AM,23.0,18.0,81,29.78,10.0,SSE,13.8,-,N/A,,Overcast,160,2012-01-22 07:53:00
2:53 AM,23.0,17.1,78,29.75,10.0,SSE,12.7,-,N/A,,Overcast,150,2012-01-22 08:53:00
3:53 AM,23.0,17.1,78,29.72,10.0,SSE,12.7,-,N/A,,Overcast,150,2012-01-22 09:53:00
5:53 AM,23.0,17.1,78,29.68,10.0,SE,16.1,-,N/A,,Overcast,140,2012-01-22 11:53:00
6:03 AM,21.2,15.8,80,29.63,10.0,SSE,15.0,-,N/A,,Overcast,150,2012-01-22 12:03:00
6:53 AM,21.9,16.0,78,29.69,10.0,SE,12.7,-,N/A,,Overcast,140,2012-01-22 12:53:00
7:53 AM,21.0,16.0,81,29.68,6.0,SE,13.8,-,N/A,,Haze,130,2012-01-22 13:53:00
8:15 AM,19.4,17.6,93,29.63,2.0,SE,12.7,-,N/A,,Overcast,130,2012-01-22 14:15:00
8:33 AM,19.4,17.6,93,29.63,1.8,SE,10.4,-,N/A,,Overcast,130,2012-01-22 14:33:00
8:41 AM,19.4,17.6,93,29.63,1.8,SE,10.4,-,N/A,,Overcast,130,2012-01-22 14:41:00
8:53 AM,19.9,18.0,92,29.67,1.5,SE,11.5,-,N/A,,Overcast,130,2012-01-22 14:53:00
9:45 AM,21.2,19.4,93,29.62,1.2,ESE,9.2,-,N/A,,Overcast,120,2012-01-22 15:45:00
10:46 AM,21.2,19.4,93,29.61,1.8,SE,10.4,-,N/A,,Overcast,130,2012-01-22 16:46:00
10:53 AM,21.9,19.9,92,29.65,1.8,ESE,10.4,-,N/A,,Overcast,120,2012-01-22 16:53:00
11:53 AM,23.0,21.0,92,29.63,1.2,East,8.1,-,N/A,,Overcast,100,2012-01-22 17:53:00
12:53 PM,23.0,21.0,92,29.61,1.2,East,8.1,-,N/A,,Overcast,100,2012-01-22 18:53:00
3:53 PM,26.1,23.0,88,29.58,1.5,East,5.8,-,N/A,,Overcast,90,2012-01-22 21:53:00
4:53 PM,26.1,24.1,92,29.58,1.2,East,6.9,-,N/A,,Overcast,90,2012-01-22 22:53:00
5:53 PM,26.1,24.1,92,29.57,1.8,ENE,5.8,-,N/A,,Overcast,70,2012-01-22 23:53:00
6:53 PM,26.1,24.1,92,29.58,2.0,ENE,5.8,-,N/A,,Overcast,70,2012-01-23 00:53:00
7:25 PM,26.6,24.8,93,29.54,1.8,East,6.9,-,N/A,,Overcast,80,2012-01-23 01:25:00
7:53 PM,27.0,25.0,92,29.58,2.0,NE,4.6,-,N/A,,Overcast,50,2012-01-23 01:53:00
8:53 PM,27.0,25.0,92,29.57,2.0,NE,4.6,-,N/A,,Overcast,50,2012-01-23 02:53:00
9:53 PM,27.0,25.0,92,29.57,2.0,NNE,6.9,-,N/A,,Overcast,30,2012-01-23 03:53:00
10:53 PM,27.0,25.0,92,29.54,2.5,NNE,5.8,-,N/A,,Overcast,20,2012-01-23 04:53:00
11:53 PM,26.1,24.1,92,29.51,2.5,North,6.9,-,N/A,,Overcast,360,2012-01-23 05:53:00